Regional Weather Roundup
Issued by NWS Newport/Morehead, NC

Current Version | Previous Version | Text Only | Print | Product List | Glossary On
Versions: 1 2 3 4 5 6 7 8 9 10 11 12 13 14 15 16 17 18 19 20 21 22 23 24 25 26 27 28 29 30 31 32 33 34 35 36 37 38 39 40 41 42 43 44 45 46 47 48 49 50
000 ASUS42 KMHX 011222 RWRMHX WEATHER ROUNDUP FOR EASTERN NORTH CAROLINA NATIONAL WEATHER SERVICE NEWPORT/MOREHEAD CITY NC 800 AM EDT MON SEP 01 2014 NOTE: "FAIR" INDICATES FEW OR NO CLOUDS BELOW 12,000 FEET WITH NO SIGNIFICANT WEATHER AND/OR OBSTRUCTIONS TO VISIBILITY NCZ015>017-031-032-045>047-102-103-011300- NORTH COAST CITY SKY/WX TMP DP RH WIND PRES REMARKS EDENTON MOSUNNY 77 75 95 SW7 30.11S ELIZABETH CITY MOSUNNY 78 75 90 SW8 30.11R KITTY HAWK PTSUNNY 79 76 91 SW5 30.10S MANTEO MOSUNNY 78 76 91 SW7 30.12S $$ NCZ045>047-081-094-103-104-011300- CENTRAL COAST CITY SKY/WX TMP DP RH WIND PRES REMARKS FRISCO SUNNY 80 77 90 W10 30.12R SWANQUARTER N/A 81 N/A N/A W8 30.09S $$ NCZ095-097-098-100-101-011300- SOUTHERN COAST CITY SKY/WX TMP DP RH WIND PRES REMARKS BEAUFORT SUNNY 82 77 84 SW12 30.12S CEDAR ISLAND N/A 84 N/A N/A S7 30.15S JACKSONVILLE SUNNY 78 75 90 CALM 30.13R NEWPORT NOT AVBL PINEY ISLAND SUNNY 81 79 94 S6 30.12S WILMINGTON MOSUNNY 78 76 93 CALM 30.13R $$ NCZ011>013-027>030-043-044-078>080-089-090>093-098-011300- COASTAL PLAIN CITY SKY/WX TMP DP RH WIND PRES REMARKS AHOSKIE PTSUNNY 76 74 93 CALM 30.11S CLINTON CLOUDY 75 75 100 CALM 30.13R FOG ELIZABETHTOWN SUNNY 76 75 99 S3 30.13S GOLDSBORO PTSUNNY 75 75 100 SW3 30.11R GREENVILLE SUNNY 77 75 94 SW6 30.13S HAVELOCK PTSUNNY 79 76 90 SW3 30.13S KENANSVILLE MOSUNNY 74 73 95 CALM 30.13S KINSTON SUNNY 75 75 100 S6 30.13R NEW BERN MOSUNNY 80 75 84 CALM 30.14R RICHLANDS SUNNY 77 73 88 SW5 30.13S ROANOKE RAPIDS NOT AVBL ROCKY MOUNT CLOUDY 76 74 93 S7 30.11R WASHINGTON MOSUNNY 77 74 92 SW5 30.12S WHITEVILLE MOSUNNY 76 74 93 CALM 30.13S $$ AMZ130-135-150-152-154-156-158-170-250-252-270-ANZ085-086-088-633-658-670-011300- MARINE OBSERVATIONS STATION/POSITION TIME TEMP WIND PRES WAVE SWELL AIR SEA DIR/SP/G HT/PER HT/PER (UTC) (F) (DEG/KT/KT) (MB) (FT/S) (FT/S) CHESAPEAKE LIGHT 1200 78 230/ 15/ 17 1019.2 BUOY 44014 1200 78 76 220/ 10/ 10 1018.9 3/10 2/10 DUCK 1200 79 75 230/ 12/ 16 1018.9 2E DUCK 1200 N/A 2/ 9 OREGON INLET 1200 80 82 220/ 11/ 13 1019.8 BUOY 44095 1200 78 N/A 3/10 20E OREGON INLET NOT AVBL HATTERAS CG 1200 81 83 240/ 8/ 12 1020.5 DIAMOND BUOY 1200 82 240/ 14/ 16 1020.0 3/ 9 2/ 9 CAPE LOOKOUT 1200 81 220/ 5/ 7 1020.0 BEAUFORT LAB 1200 81 83 210/ 7/ 9 1019.6 30 SE NEW RIVER 1200 81 82 220/ 8/ 8 1020.6 3/ 5 3/ 5 5 SE WRIGHTSVILL 1200 78 82 250/ 6/ 6 N/A BUOY 41002 1148 81 83 190/ 6/ 8 1021.7 3/ 8 3/ 8 BUOY 41004 1200 82 83 280/ 4/ 6 1019.6 3/ 8 2/ 8 $$

USA.gov is the U.S. government's official web portal to all federal, state and local government web resources and services.